(161561) = 2005 AR7

Discovered at Catalina on 2005-01-06 by CSS.

Orbit

Orbit type: Main Belt

Note: WebGL enabled browser required.

epoch2024-03-31.0
epoch JD2460400.5
perihelion date2020-06-21.54301
perihelion JD2459022.04301
argument of perihelion (°)20.30238
ascending node (°)25.53396
inclination (°)2.49821
eccentricity0.1482354
perihelion distance (AU)2.1568814
Tisserand w.r.t. Jupiter3.4
ΔV w.r.t. Earth (km/sec)9.2
semimajor axis (AU)2.5322507
mean anomaly (°)337.16075
mean daily motion (°/day)0.24459290
aphelion distance (AU)2.908
period (years)4.03
P-vector [x]0.69685243
P-vector [y]0.65186917
P-vector [z]0.29910413
Q-vector [x]-0.71696840
Q-vector [y]0.62222000
Q-vector [z]0.31432243
absolute magnitude16.38
phase slope0.15
uncertainty0
referenceMPEC 2024-E02
observations used652
oppositions18
arc length (days)8822
first opposition used1999
last opposition used2023
residual rms (arc-secs)0.69
perturbers coarse indicatorM-v
perturbers precise indicator003Ek
first observation date used1999-09-16.0
last observation date used2023-11-11.0
computer nameMPCLINUX
JD of orbit computation2456819.399597
perihelion JD uncertainty (days)9.0934E-05
argument of perihelion uncertainty (°)1.1799E-04
ascending node uncertainty (°)1.1643E-04
inclination uncertainty (°)3.1412E-06
eccentricity uncertainty 3.5042E-08
perihelion distance uncertainty (AU)8.7535E-08
Minimum Orbit Intersection Distances (in AU)
for orbit epoch: 2460400.5, reference: E2024-E02
Mercury1.83781
Venus1.43501
Earth1.16666
Mars0.65932
Jupiter2.47067
Saturn6.69291
Uranus15.686
Neptune27.633

Observations

660 total observations over interval: 1999 09 16.28039 – 2023 11 11.095943
These data are available for download (format description).

Date (UT) J2000 RA J2000 Dec Magn Location Ref
1999 09 16.28039 21 55 43.71 -15 58 12.4 19.7 V 691 – Steward Observatory, Kitt Peak-Spacewatch MPS 178490
1999 09 16.29535 21 55 43.01 -15 58 14.0 19.7 V 691 – Steward Observatory, Kitt Peak-Spacewatch MPS 178490
1999 09 16.31083 21 55 42.34 -15 58 15.7 19.5 V 691 – Steward Observatory, Kitt Peak-Spacewatch MPS 178490
2001 01 02.50939 09 26 26.45 +19 09 12.9 20.4 V 691 – Steward Observatory, Kitt Peak-Spacewatch MPS 125755
2001 01 02.53002 09 26 25.76 +19 09 17.0 20.3 V 691 – Steward Observatory, Kitt Peak-Spacewatch MPS 125755
2001 01 02.55039 09 26 25.06 +19 09 20.9 20.2 V 691 – Steward Observatory, Kitt Peak-Spacewatch MPS 125755
2001 01 19.34882 09 13 47.09 +20 17 01.3 19.7   704 – Lincoln Laboratory ETS, New Mexico MPS 125755
2001 01 19.36420 09 13 46.17 +20 17 05.1 19.6   704 – Lincoln Laboratory ETS, New Mexico MPS 125755
2001 01 19.37959 09 13 45.21 +20 17 09.8 20.0   704 – Lincoln Laboratory ETS, New Mexico MPS 125755
2001 01 19.39499 09 13 44.41 +20 17 12.3 19.5   704 – Lincoln Laboratory ETS, New Mexico MPS 125755
2003 08 23.21856 21 56 23.04 -16 29 21.8 18.8   644 – Palomar Mountain/NEAT MPS 212274
2003 08 23.24001 21 56 21.80 -16 29 27.5 18.8   644 – Palomar Mountain/NEAT MPS 212274
2003 08 23.26156 21 56 20.53 -16 29 32.9 18.7   644 – Palomar Mountain/NEAT MPS 212274
2005 01 06.38964 09 04 48.92 +20 55 45.2 19.1 R 703 – Catalina Sky Survey MPS 124161
2005 01 06.39715 09 04 48.49 +20 55 47.9 18.9 R 703 – Catalina Sky Survey MPS 124161
2005 01 06.40466 09 04 48.14 +20 55 49.4 18.2 R 703 – Catalina Sky Survey MPS 124161
2005 01 06.41220 09 04 47.83 +20 55 51.1 18.6 R 703 – Catalina Sky Survey MPS 124161
2005 01 07.35166 09 04 04.59 +20 59 34.0 20.5   704 – Lincoln Laboratory ETS, New Mexico MPS 124161
2005 01 07.37831 09 04 03.34 +20 59 40.4 20.2   704 – Lincoln Laboratory ETS, New Mexico MPS 124161
2005 01 07.39168 09 04 02.73 +20 59 44.2 20.3   704 – Lincoln Laboratory ETS, New Mexico MPS 124161
2005 01 15.37030 08 57 05.48 +21 32 33.8 19.5 V 691 – Steward Observatory, Kitt Peak-Spacewatch MPS 124798
2005 01 15.39604 08 57 03.95 +21 32 40.1 19.6 V 691 – Steward Observatory, Kitt Peak-Spacewatch MPS 124798
2005 01 15.42243 08 57 02.44 +21 32 46.6 19.4 V 691 – Steward Observatory, Kitt Peak-Spacewatch MPS 124798
2005 01 16.34742 08 56 09.34 +21 36 37.1 19.4   704 – Lincoln Laboratory ETS, New Mexico MPS 124798
2005 01 16.36042 08 56 08.62 +21 36 40.7 19.6   704 – Lincoln Laboratory ETS, New Mexico MPS 124798
2005 01 16.37345 08 56 07.78 +21 36 44.1 19.8   704 – Lincoln Laboratory ETS, New Mexico MPS 124798
2005 01 16.38696 08 56 06.97 +21 36 47.4 19.8   704 – Lincoln Laboratory ETS, New Mexico MPS 124798
2005 01 16.39998 08 56 06.20 +21 36 50.2 19.8   704 – Lincoln Laboratory ETS, New Mexico MPS 124798
2005 01 18.43360 08 54 06.55 +21 45 15.5 19.5 V 691 – Steward Observatory, Kitt Peak-Spacewatch MPS 124798
2005 01 18.46092 08 54 04.85 +21 45 22.0 19.7 V 691 – Steward Observatory, Kitt Peak-Spacewatch MPS 124798
2005 01 18.49219 08 54 02.94 +21 45 29.5 19.7 V 691 – Steward Observatory, Kitt Peak-Spacewatch MPS 124798
2005 01 19.34753 08 53 11.94 +21 49 00.4 19.4   704 – Lincoln Laboratory ETS, New Mexico MPS 124798
2005 01 19.36080 08 53 11.05 +21 49 03.1 19.7   704 – Lincoln Laboratory ETS, New Mexico MPS 124798
2005 01 19.37429 08 53 10.19 +21 49 06.7 19.8   704 – Lincoln Laboratory ETS, New Mexico MPS 124798
2005 01 19.38803 08 53 09.37 +21 49 09.5 19.9   704 – Lincoln Laboratory ETS, New Mexico MPS 124798
2005 02 01.27425 08 39 46.33 +22 37 04.5 18.9 R 703 – Catalina Sky Survey MPS 125755
2005 02 01.28220 08 39 45.92 +22 37 07.0 19.8 R 703 – Catalina Sky Survey MPS 125755
2005 02 01.29015 08 39 45.53 +22 37 09.0 19.2 R 703 – Catalina Sky Survey MPS 125755
2005 02 01.29810 08 39 44.91 +22 37 10.3 18.4 R 703 – Catalina Sky Survey MPS 125755
2005 02 03.29784 08 37 41.86 +22 43 21.5 19.0   704 – Lincoln Laboratory ETS, New Mexico MPS 125755
2005 02 03.31532 08 37 40.74 +22 43 24.4 19.5   704 – Lincoln Laboratory ETS, New Mexico MPS 125755
2005 02 03.34030 08 37 39.17 +22 43 29.8 19.6   704 – Lincoln Laboratory ETS, New Mexico MPS 125755
2005 02 03.35334 08 37 38.42 +22 43 31.3 20.0   704 – Lincoln Laboratory ETS, New Mexico MPS 125755
2006 04 07.39222 15 08 50.90 -18 31 35.7 20.7 V 691 – Steward Observatory, Kitt Peak-Spacewatch MPS 168823
2006 04 07.40962 15 08 50.20 -18 31 34.5 21.0 V 691 – Steward Observatory, Kitt Peak-Spacewatch MPS 168823
2006 04 07.42701 15 08 49.55 -18 31 32.6 20.9 V 691 – Steward Observatory, Kitt Peak-Spacewatch MPS 168823
2006 05 04.32152 14 46 23.19 -17 19 44.7 19.8 V G96 – Mt. Lemmon Survey MPS 170846
2006 05 04.32641 14 46 22.87 -17 19 43.8 19.7 V G96 – Mt. Lemmon Survey MPS 170846
2006 05 04.33149 14 46 22.62 -17 19 42.6 19.5 V G96 – Mt. Lemmon Survey MPS 170846
2006 05 04.33648 14 46 22.29 -17 19 41.4 19.7 V G96 – Mt. Lemmon Survey MPS 170846
2007 07 21.53293 22 00 57.59 -16 12 04.0 19.7 V F85 – Tiki Observatory, Punaauia MPS 212274
2007 07 21.56633 22 00 56.40 -16 12 11.0 19.7 V F85 – Tiki Observatory, Punaauia MPS 212274
2007 07 21.59973 22 00 55.19 -16 12 18.8 19.5 V F85 – Tiki Observatory, Punaauia MPS 212274
2007 08 06.76580 21 49 05.55 -17 19 00.3 19.9 R D35 – Lulin Observatory MPS 212620
2007 08 06.77455 21 49 05.10 -17 19 02.5 19.6 R D35 – Lulin Observatory MPS 212620
2007 08 06.78337 21 49 04.64 -17 19 05.0 20.1 R D35 – Lulin Observatory MPS 212620
2007 08 11.23757 21 45 03.49 -17 38 46.6 19.2   704 – Lincoln Laboratory ETS, New Mexico MPS 213138
2007 08 11.24977 21 45 02.80 -17 38 48.6 19.3   704 – Lincoln Laboratory ETS, New Mexico MPS 213138
2007 08 11.26195 21 45 02.17 -17 38 51.5 19.5   704 – Lincoln Laboratory ETS, New Mexico MPS 213138
2007 08 11.28869 21 45 00.61 -17 38 59.2 18.8 R 699 – Lowell Observatory-LONEOS MPS 213138
2007 08 11.30696 21 44 59.56 -17 39 03.5   699 – Lowell Observatory-LONEOS MPS 213138
2007 08 11.32520 21 44 58.47 -17 39 09.2   699 – Lowell Observatory-LONEOS MPS 213138
2007 08 11.34347 21 44 57.40 -17 39 14.2   699 – Lowell Observatory-LONEOS MPS 213138
2007 08 18.27334 21 38 24.62 -18 08 36.4 18.7 R 699 – Lowell Observatory-LONEOS MPS 213723
2007 08 18.29160 21 38 23.50 -18 08 40.5   699 – Lowell Observatory-LONEOS MPS 213723
2007 08 18.30989 21 38 22.43 -18 08 45.5   699 – Lowell Observatory-LONEOS MPS 213723
2007 08 18.32818 21 38 21.29 -18 08 51.0   699 – Lowell Observatory-LONEOS MPS 213723
2007 10 16.13796 21 15 11.37 -18 29 58.2 20.1 V G96 – Mt. Lemmon Survey MPS 222280
2007 10 16.14628 21 15 11.55 -18 29 56.5 20.0 V G96 – Mt. Lemmon Survey MPS 222280
2007 10 16.15463 21 15 11.77 -18 29 55.1 20.3 V G96 – Mt. Lemmon Survey MPS 222280
2007 10 16.16302 21 15 11.91 -18 29 52.7 21.0 V G96 – Mt. Lemmon Survey MPS 222280
2008 09 28.44247 07 46 52.57 +23 20 35.5 21.1 V 691 – Steward Observatory, Kitt Peak-Spacewatch MPS 259008
2008 09 28.45509 07 46 53.79 +23 20 31.8 20.6 V 691 – Steward Observatory, Kitt Peak-Spacewatch MPS 259008
2008 09 28.46770 07 46 55.07 +23 20 31.2 21.0 V 691 – Steward Observatory, Kitt Peak-Spacewatch MPS 259008
2008 12 21.37963 08 53 07.18 +21 34 07.3 19.6   704 – Lincoln Laboratory ETS, New Mexico MPS 271566
2008 12 21.39229 08 53 06.83 +21 34 10.5 19.9   704 – Lincoln Laboratory ETS, New Mexico MPS 271566
2008 12 21.40496 08 53 06.52 +21 34 09.4 19.8   704 – Lincoln Laboratory ETS, New Mexico MPS 271566
2008 12 21.41762 08 53 06.18 +21 34 13.4 19.5   704 – Lincoln Laboratory ETS, New Mexico MPS 271566
2008 12 21.43029 08 53 05.82 +21 34 16.6 20.0   704 – Lincoln Laboratory ETS, New Mexico MPS 271566
2008 12 30.08028 08 48 21.00 +22 02 32.9 19.2 V J75 – OAM Observatory, La Sagra MPS 272130
2008 12 30.09428 08 48 20.38 +22 02 36.1 19.3 V J75 – OAM Observatory, La Sagra MPS 272130
2008 12 30.10828 08 48 19.69 +22 02 39.4 19.4 V J75 – OAM Observatory, La Sagra MPS 272130
2008 12 31.32619 08 47 28.75 +22 07 05.2 19.6   704 – Lincoln Laboratory ETS, New Mexico MPS 271566
2008 12 31.33909 08 47 28.15 +22 07 10.5 20.1   704 – Lincoln Laboratory ETS, New Mexico MPS 271566
2008 12 31.35191 08 47 27.65 +22 07 13.1 19.8   704 – Lincoln Laboratory ETS, New Mexico MPS 271566
2008 12 31.35829 08 47 27.34 +22 07 13.1 19.6 V G96 – Mt. Lemmon Survey MPS 271566
